CZ-6 R/B, 44784

Orbit data source: Space-Track

CZ-6 R/B, 44784 is space debris in LEO originally from a launch on Wed, 13 Nov 2019 UTC launched from the Taiyaun Space Center, China (TSC). Debris objects in space refer to the collection of defunct objects orbiting the Earth. Examples of debris include non-operational satellites, rocket bodies, and fragments generated from explosions, collisions, or faulty payload assembly.

Loading next visibility...
Identifier
44784, 2019-076F
Orbit
LEO
Country
Flag of CNCN / PRC
Related business
Manufacturer
SAST
Mission
Spacecraft
Bus & Motor
CZ-6 STAGE 3, YF-85 X 4
Mass
~1,000 kg wet, ~1,000 kg dry
Launch date (UTC)
2019-11-13 (6 years ago)
Launch vehicle
Unknown
Launch site
Taiyaun Space Center, China (TSC)
Object type
Payload
Rocket body
Debris
Shape & HBR
Cyl, 2.0 m
Radar Cross Section
9.057 m², Large (>1 m²)

Expand to show TLE details & history
Last TLE update: 15 hours ago

TLE from 15 hours ago
0 CZ-6 R/B
1 44784U 19076F   25258.79908826  .00000142  00000-0  12882-3 0  9992
2 44784  45.0067  70.8210 0088687 282.1026  76.9889 14.17984214302741
Epoch: 2025-09-15T19:10Z
TLE epoch observation values (Epoch: 2025-09-15T19:10:41.225Z)
Latitude
-0.00001°
Longitude
148.15065°
Altitude
818.322 km
Speed
7.453 km/s
True Right ascension
04h 43m 17s
True Declination
0° 00' 00"
Sunlit
Object was in daylight at epoch
Visualization orbit readout
Latitude
Unknown
Longitude
Unknown
Altitude
Unknown
Speed
Unknown
Apparent Right ascension
Unknown
Apparent Declination
Unknown
Sunlit
N/A
Visualization observer readout
Local Sidereal Time
02:23:57
Azimuth
Unknown
Elevation
Unknown
Doppler factor
Unknown
Orbital elements
Apogee altitude
897.669 km
Perigee altitude
769.749 km
Semi-major axis
7,211.846 km
Eccentricity
0.00887
Inclination
45.0067°
RAAN
70.821°
Arg. of periapsis
282.1026°
True anomaly
77.98151°
Mean anomaly
76.9889°
Eccentric anomaly
77.48497°
Mean motion
3.54384 °/min
Orbital period
101.58 mins
BSTAR
0.00012882
Loading maneuver chart data...
Computing Atmospheric mass density...
Loading historical data...
Loading historical data...
Loading historical data...
Loading historical data...
Loading historical data...
Loading historical data...
Loading historical data...
Other satellites on launch #76 in the year 2019 (2019-11-13 UTC)

Documentation

Showing up to 5 results
|